CZ-6A DEB

Satellite information

Favourite Embed

Satellite Type and Status

DEBRISIN ORBIT

Key statistics

Satellite CZ-6A DEB at a glance.

Uptime

1032

Days in orbit

Revolutions

≈ 14.2

Per day

Orbit

SSO

Sun Synchronous Orbit

Inclination

98.8

Latest

Satellite identification and parameters

Extended collection of information and parameters for CZ-6A DEB.

Object identification

Identified? True

Debris? True

Object name: CZ-6A DEB

International designator: 2022-151AHM

Object number (NORAD): 56685

Object ID (CCSDS): 56685

Country: PEOPLES REPUBLIC OF CHINA (PRC)

Current information (Y/N): Y

RCS size: SMALL

Orbital parameters

Period: 101.615 minutes

Inclination: 98.8181 deg

SMA: 7213.246 km

Apoapsis: 867.478 km

Periapsis: 802.744 km

RAAN: 252.8071 deg

Eccentricy: 0.00448717

Argument of periapsis: 47.361 deg

Mean anomaly: 313.1334 deg

Mean motion: 14.17120033 rev/day

Mean motion (dot): 0.00003931 rev/day2

B* drag term: 0.0019534566 1/REarth

Two-line elements (TLE)

Creation date: Sept. 6, 2025, 10:23 a.m.

Reference frame: TEME

Reference center: EARTH

Epoch: Sept. 6, 2025, 6:37 a.m. UTC

TLE line 0: 0 CZ-6A DEB

TLE line 1: 1 56685U 22151AHM 25249.27594332 .00003931 00000-0 19535-2 0 9999

TLE line 2: 2 56685 98.8181 252.8071 0044872 47.3610 313.1334 14.17120033121046

Live tracking on map

Real-time ground track for satellite CZ-6A DEB.

In-orbit conjunctions

A list of the most updated potential collisions computed for object CZ-6A DEB.

Target Orbit TCA Probability of collision Miss distance Type
METEOR 1-20 LEO 2024-11-23 21:34:38 0.0001913791 546.0 (m) PAYLOAD
CZ-6A DEB SSO 2024-11-16 15:34:36 0.0007127787 721.0 (m) DEBRIS
SCOUT X-4 R/B LEO 2024-10-10 17:11:18 0.0001346277 286.0 (m) ROCKET BODY
SL-3 R/B LEO 2024-06-15 00:30:50 0.000114973 419.0 (m) ROCKET BODY

Associated space launch

Chinese satellite reported for atmospheric/ocean/environmental/spatial parameter research purposes, details TBD.

CZ-6A DEB was lifted into orbit during the mission ‘Long March 6A | Yunhai 3’, on board a Long March 6A space rocket.

The launch took place on Nov. 11, 2022, 10:52 p.m. from Launch Complex 9A.

For more information about the launch, click the button.

Launch to space Long March 6A | Yunhai 3
Long March 6A | Yunhai 3

Agency: N/A

Status: Launch Successful

Launch date: Nov. 11, 2022, 10:52 p.m. UTC

Rocket: Long March 6A

Launch pad: Launch Complex 9A

Location: Taiyuan Satellite Launch Center, People's Republic of China

...

Latest news about this satellite

There are no fresh news available about this satellite. Check back as we update our databases every day.


Newsletter sign-up

Weekly statistics, charts and insights to help you stay on top of the space industry.